Погода в Балабаново

Россия / Калужская область     55°10′38″N   36°39′24″E
темп.,
°C
ветер,
м/с
пор.,
м/с
влажн.,
%
обл.,
%
осадки,
мм/ч
давл.,
гПа
погр.,
м
27 июля, вт
вт2700:00+18ююз117254 0.0 102111
03:00+18з1170100 0.0 102211
06:00+17св11780 0.0 102115
09:00+24ююв115475 0.0 1020505
12:00+28ю12380 0.0 10201860
15:00+27зсз2340100 0.0 10191450
18:00+23ссз245591 0.0 101882
21:00+18ю117747 0.1 101811
28 июля, ср
ср2800:00+16юз228291 0.0 101926
03:00+17ююв117873 0.0 101711
06:00+17ююв238385 0.1 101678
09:00+21ююз246999 0.1 1015284
12:00+20ююв3670100 0.0 1014265
15:00+22ююз6966100 0.1 10141099
18:00+16юв31093100 1.4 1011376
21:00+16юв2998100 2.1 1009390
29 июля, чт
чт2900:00+17юз3899100 0.1 1008416
03:00+17зюз389897 0.3 1007463
06:00+16з389728 0.0 1008447
09:00+20зсз467795 0.0 1008760
12:00+25зсз4754100 0.0 10071390
15:00+27зсз4643100 0.0 10072423
18:00+26зсз475262 0.0 1005833
21:00+21юз257499 0.0 1006107
30 июля, пт
пт3000:00+17зсз27925 0.2 1007118
03:00+16зсз24925 0.2 100765
06:00+16з24910 0.0 1008105
09:00+22з23620 0.0 1008497
12:00+26з344575 0.0 10082030
15:00+26з354497 0.0 10071878
18:00+24з365095 0.0 1007527
21:00+21зюз246499 0.0 100787
31 июля, сб
сб3100:00+16ююз237856 0.0 100850
03:00+16ююз3781100 0.0 1007127
06:00+18юз41170100 0.1 1006408
09:00+19зюз4974100 0.2 1007569
12:00+24юз585810 0.8 10061159
15:00+26зюз695462 1.4 10041809
18:00+24зсз376094 0.3 1005448
21:00+18юз227859 0.3 100614